Year,Month,Day,Hour,Minute,Value (Times are PST for temperature in C)
2016,05,20,00,00,9.90
2016,05,20,00,01,9.80
2016,05,20,00,02,9.80
2016,05,20,00,03,9.80
2016,05,20,00,04,9.80
2016,05,20,00,05,9.80
2016,05,20,00,06,9.80
2016,05,20,00,07,9.80
2016,05,20,00,08,9.80
2016,05,20,00,09,9.80
2016,05,20,00,10,9.80
2016,05,20,00,11,9.80
2016,05,20,00,12,9.80
2016,05,20,00,13,9.80
2016,05,20,00,14,9.80
2016,05,20,00,15,9.80
2016,05,20,00,16,9.80
2016,05,20,00,17,9.80
2016,05,20,00,18,9.80
2016,05,20,00,19,9.80
2016,05,20,00,20,9.80
2016,05,20,00,21,9.80
2016,05,20,00,22,9.80
2016,05,20,00,23,9.80
2016,05,20,00,24,9.70
2016,05,20,00,25,9.70
2016,05,20,00,26,9.70
2016,05,20,00,27,9.70
2016,05,20,00,28,9.70
2016,05,20,00,29,9.70
2016,05,20,00,30,9.60
2016,05,20,00,31,9.60
2016,05,20,00,32,9.60
2016,05,20,00,33,9.60
2016,05,20,00,34,9.60
2016,05,20,00,35,9.50
2016,05,20,00,36,9.50
2016,05,20,00,37,9.50
2016,05,20,00,38,9.50
2016,05,20,00,39,9.50
2016,05,20,00,40,9.50
2016,05,20,00,41,9.40
2016,05,20,00,42,9.40
2016,05,20,00,43,9.40
2016,05,20,00,44,9.40
2016,05,20,00,45,9.40
2016,05,20,00,46,9.40
2016,05,20,00,47,9.40
2016,05,20,00,48,9.40
2016,05,20,00,49,9.40
2016,05,20,00,50,9.30
2016,05,20,00,51,9.30
2016,05,20,00,52,9.30
2016,05,20,00,53,9.30
2016,05,20,00,54,9.30
2016,05,20,00,55,9.30
2016,05,20,00,56,9.30
2016,05,20,00,57,9.30
2016,05,20,00,58,9.20
2016,05,20,00,59,9.20
2016,05,20,01,00,9.20
2016,05,20,01,01,9.20
2016,05,20,01,02,9.20
2016,05,20,01,03,9.20
2016,05,20,01,04,9.20
2016,05,20,01,05,9.20
2016,05,20,01,06,9.20
2016,05,20,01,07,9.20
2016,05,20,01,08,9.20
2016,05,20,01,09,9.20
2016,05,20,01,10,9.20
2016,05,20,01,11,9.20
2016,05,20,01,12,9.20
2016,05,20,01,13,9.20
2016,05,20,01,14,9.20
2016,05,20,01,15,9.20
2016,05,20,01,16,9.30
2016,05,20,01,17,9.30
2016,05,20,01,18,9.30
2016,05,20,01,19,9.30
2016,05,20,01,20,9.30
2016,05,20,01,21,9.30
2016,05,20,01,22,9.30
2016,05,20,01,23,9.30
2016,05,20,01,24,9.40
2016,05,20,01,25,9.40
2016,05,20,01,26,9.40
2016,05,20,01,27,9.30
2016,05,20,01,28,9.30
2016,05,20,01,29,9.30
2016,05,20,01,30,9.30
2016,05,20,01,31,9.30
2016,05,20,01,32,9.30
2016,05,20,01,33,9.30
2016,05,20,01,34,9.30
2016,05,20,01,35,9.30
2016,05,20,01,36,9.30
2016,05,20,01,37,9.30
2016,05,20,01,38,9.30
2016,05,20,01,39,9.30
2016,05,20,01,40,9.30
2016,05,20,01,41,9.30
2016,05,20,01,42,9.30
2016,05,20,01,43,9.30
2016,05,20,01,44,9.30
2016,05,20,01,45,9.20
2016,05,20,01,46,9.20
2016,05,20,01,47,9.20
2016,05,20,01,48,9.20
2016,05,20,01,49,9.20
2016,05,20,01,50,9.20
2016,05,20,01,51,9.20
2016,05,20,01,52,9.20
2016,05,20,01,53,9.20
2016,05,20,01,54,9.20
2016,05,20,01,55,9.20
2016,05,20,01,56,9.20
2016,05,20,01,57,9.20
2016,05,20,01,58,9.20
2016,05,20,01,59,9.20
2016,05,20,02,00,9.20
2016,05,20,02,01,9.20
2016,05,20,02,02,9.10
2016,05,20,02,03,9.10
2016,05,20,02,04,9.10
2016,05,20,02,05,9.10
2016,05,20,02,06,9.10
2016,05,20,02,07,9.10
2016,05,20,02,08,9.10
2016,05,20,02,09,9.10
2016,05,20,02,10,9.10
2016,05,20,02,11,9.10
2016,05,20,02,12,9.10
2016,05,20,02,13,9.10
2016,05,20,02,14,9.10
2016,05,20,02,15,9.10
2016,05,20,02,16,9.10
2016,05,20,02,17,9.10
2016,05,20,02,18,9.10
2016,05,20,02,19,9.10
2016,05,20,02,20,9.10
2016,05,20,02,21,9.20
2016,05,20,02,22,9.10
2016,05,20,02,23,9.10
2016,05,20,02,24,9.10
2016,05,20,02,25,9.10
2016,05,20,02,26,9.10
2016,05,20,02,27,9.10
2016,05,20,02,28,9.10
2016,05,20,02,29,9.10
2016,05,20,02,30,9.10
2016,05,20,02,31,9.10
2016,05,20,02,32,9.10
2016,05,20,02,33,9.10
2016,05,20,02,34,9.10
2016,05,20,02,35,9.10
2016,05,20,02,36,9.10
2016,05,20,02,37,9.10
2016,05,20,02,38,9.10
2016,05,20,02,39,9.10
2016,05,20,02,40,9.10
2016,05,20,02,41,9.10
2016,05,20,02,42,9.10
2016,05,20,02,43,9.10
2016,05,20,02,44,9.10
2016,05,20,02,45,9.10
2016,05,20,02,46,9.10
2016,05,20,02,47,9.10
2016,05,20,02,48,9.10
2016,05,20,02,49,9.10
2016,05,20,02,50,9.10
2016,05,20,02,51,9.10
2016,05,20,02,52,9.10
2016,05,20,02,53,9.10
2016,05,20,02,54,9.10
2016,05,20,02,55,9.10
2016,05,20,02,56,9.10
2016,05,20,02,57,9.10
2016,05,20,02,58,9.10
2016,05,20,02,59,9.10
2016,05,20,03,00,9.10
2016,05,20,03,01,9.10
2016,05,20,03,02,9.10
2016,05,20,03,03,9.10
2016,05,20,03,04,9.10
2016,05,20,03,05,9.10
2016,05,20,03,06,9.10
2016,05,20,03,07,9.10
2016,05,20,03,08,9.10
2016,05,20,03,09,9.10
2016,05,20,03,10,9.10
2016,05,20,03,11,9.10
2016,05,20,03,12,9.10
2016,05,20,03,13,9.10
2016,05,20,03,14,9.10
2016,05,20,03,15,9.10
2016,05,20,03,16,9.10
2016,05,20,03,17,9.00
2016,05,20,03,18,9.00
2016,05,20,03,19,9.00
2016,05,20,03,20,9.00
2016,05,20,03,21,9.00
2016,05,20,03,22,9.00
2016,05,20,03,23,9.00
2016,05,20,03,24,9.00
2016,05,20,03,25,9.00
2016,05,20,03,26,9.00
2016,05,20,03,27,9.00
2016,05,20,03,28,9.00
2016,05,20,03,29,9.00
2016,05,20,03,30,9.00
2016,05,20,03,31,8.90
2016,05,20,03,32,8.90
2016,05,20,03,33,8.90
2016,05,20,03,34,8.90
2016,05,20,03,35,8.90
2016,05,20,03,36,8.90
2016,05,20,03,37,8.90
2016,05,20,03,38,8.90
2016,05,20,03,39,8.90
2016,05,20,03,40,8.90
2016,05,20,03,41,8.90
2016,05,20,03,42,8.90
2016,05,20,03,43,8.90
2016,05,20,03,44,8.90
2016,05,20,03,45,8.90
2016,05,20,03,46,8.90
2016,05,20,03,47,8.90
2016,05,20,03,48,9.00
2016,05,20,03,49,9.00
2016,05,20,03,50,9.00
2016,05,20,03,51,9.00
2016,05,20,03,52,9.00
2016,05,20,03,53,9.00
2016,05,20,03,54,9.00
2016,05,20,03,55,9.10
2016,05,20,03,56,9.10
2016,05,20,03,57,9.10
2016,05,20,03,58,9.10
2016,05,20,03,59,9.10
2016,05,20,04,00,9.10
2016,05,20,04,01,9.10
2016,05,20,04,02,9.10
2016,05,20,04,03,9.10
2016,05,20,04,04,9.10
2016,05,20,04,05,9.10
2016,05,20,04,06,9.10
2016,05,20,04,07,9.10
2016,05,20,04,09,9.10
2016,05,20,04,10,9.10
2016,05,20,04,11,9.10
2016,05,20,04,12,9.10
2016,05,20,04,13,9.10
2016,05,20,04,14,9.10
2016,05,20,04,15,9.10
2016,05,20,04,16,9.10
2016,05,20,04,17,9.10
2016,05,20,04,18,9.10
2016,05,20,04,19,9.10
2016,05,20,04,20,9.10
2016,05,20,04,21,9.10
2016,05,20,04,22,9.10
2016,05,20,04,23,9.10
2016,05,20,04,24,9.10
2016,05,20,04,25,9.10
2016,05,20,04,26,9.10
2016,05,20,04,27,9.10
2016,05,20,04,28,9.10
2016,05,20,04,29,9.10
2016,05,20,04,30,9.10
2016,05,20,04,31,9.10
2016,05,20,04,32,9.10
2016,05,20,04,33,9.10
2016,05,20,04,34,9.10
2016,05,20,04,35,9.10
2016,05,20,04,36,9.10
2016,05,20,04,37,9.10
2016,05,20,04,38,9.10
2016,05,20,04,39,9.10
2016,05,20,04,40,9.10
2016,05,20,04,41,9.10
2016,05,20,04,42,9.10
2016,05,20,04,43,9.10
2016,05,20,04,44,9.10
2016,05,20,04,45,9.00
2016,05,20,04,46,9.00
2016,05,20,04,47,9.00
2016,05,20,04,48,9.10
2016,05,20,04,49,9.10
2016,05,20,04,50,9.00
2016,05,20,04,51,9.00
2016,05,20,04,52,9.00
2016,05,20,04,53,9.00
2016,05,20,04,54,9.00
2016,05,20,04,55,9.00
2016,05,20,04,56,9.00
2016,05,20,04,57,9.00
2016,05,20,04,58,9.00
2016,05,20,04,59,9.00
2016,05,20,05,00,9.00
2016,05,20,05,01,9.00
2016,05,20,05,02,8.90
2016,05,20,05,03,8.90
2016,05,20,05,04,8.90
2016,05,20,05,05,8.90
2016,05,20,05,06,8.90
2016,05,20,05,07,8.90
2016,05,20,05,08,8.90
2016,05,20,05,09,8.90
2016,05,20,05,10,8.90
2016,05,20,05,11,8.90
2016,05,20,05,12,8.90
2016,05,20,05,13,8.90
2016,05,20,05,14,8.90
2016,05,20,05,15,8.90
2016,05,20,05,16,8.90
2016,05,20,05,17,8.80
2016,05,20,05,18,8.80
2016,05,20,05,19,8.80
2016,05,20,05,20,8.80
2016,05,20,05,21,8.80
2016,05,20,05,22,8.80
2016,05,20,05,23,8.80
2016,05,20,05,24,8.80
2016,05,20,05,25,8.80
2016,05,20,05,26,8.80
2016,05,20,05,27,8.80
2016,05,20,05,28,8.80
2016,05,20,05,29,8.80
2016,05,20,05,30,8.80
2016,05,20,05,31,8.80
2016,05,20,05,32,8.80
2016,05,20,05,33,8.80
2016,05,20,05,34,8.80
2016,05,20,05,35,8.80
2016,05,20,05,36,8.80
2016,05,20,05,37,8.80
2016,05,20,05,38,8.80
2016,05,20,05,39,8.80
2016,05,20,05,40,8.80
2016,05,20,05,41,8.80
2016,05,20,05,42,8.80
2016,05,20,05,43,8.80
2016,05,20,05,44,8.80
2016,05,20,05,45,8.80
2016,05,20,05,46,8.80
2016,05,20,05,47,8.70
2016,05,20,05,48,8.70
2016,05,20,05,49,8.70
2016,05,20,05,50,8.70
2016,05,20,05,51,8.70
2016,05,20,05,52,8.70
2016,05,20,05,53,8.70
2016,05,20,05,54,8.70
2016,05,20,05,55,8.70
2016,05,20,05,56,8.70
2016,05,20,05,57,8.60
2016,05,20,05,58,8.60
2016,05,20,05,59,8.60
2016,05,20,06,00,8.60
2016,05,20,06,01,8.60
2016,05,20,06,02,8.60
2016,05,20,06,03,8.60
2016,05,20,06,04,8.60
2016,05,20,06,05,8.60
2016,05,20,06,06,8.60
2016,05,20,06,07,8.60
2016,05,20,06,08,8.60
2016,05,20,06,09,8.50
2016,05,20,06,10,8.50
2016,05,20,06,11,8.50
2016,05,20,06,12,8.50
2016,05,20,06,13,8.50
2016,05,20,06,14,8.50
2016,05,20,06,15,8.50
2016,05,20,06,16,8.50
2016,05,20,06,17,8.50
2016,05,20,06,18,8.50
2016,05,20,06,19,8.60
2016,05,20,06,20,8.60
2016,05,20,06,21,8.60
2016,05,20,06,22,8.60
2016,05,20,06,23,8.60
2016,05,20,06,24,8.60
2016,05,20,06,25,8.60
2016,05,20,06,26,8.70
2016,05,20,06,27,8.70
2016,05,20,06,28,8.70
2016,05,20,06,29,8.70
2016,05,20,06,30,8.70
2016,05,20,06,31,8.70
2016,05,20,06,32,8.80
2016,05,20,06,33,8.80
2016,05,20,06,34,8.80
2016,05,20,06,35,8.90
2016,05,20,06,36,8.90
2016,05,20,06,37,8.90
2016,05,20,06,38,9.00
2016,05,20,06,39,9.00
2016,05,20,06,40,9.10
2016,05,20,06,41,9.10
2016,05,20,06,42,9.10
2016,05,20,06,43,9.10
2016,05,20,06,44,9.10
2016,05,20,06,45,9.10
2016,05,20,06,46,9.20
2016,05,20,06,47,9.20
2016,05,20,06,48,9.20
2016,05,20,06,49,9.20
2016,05,20,06,50,9.20
2016,05,20,06,51,9.20
2016,05,20,06,52,9.20
2016,05,20,06,53,9.20
2016,05,20,06,54,9.20
2016,05,20,06,55,9.20
2016,05,20,06,56,9.20
2016,05,20,06,57,9.20
2016,05,20,06,58,9.20
2016,05,20,06,59,9.20
2016,05,20,07,00,9.30
2016,05,20,07,01,9.30
2016,05,20,07,02,9.30
2016,05,20,07,03,9.30
2016,05,20,07,04,9.30
2016,05,20,07,05,9.30
2016,05,20,07,06,9.30
2016,05,20,07,07,9.30
2016,05,20,07,08,9.30
2016,05,20,07,09,9.40
2016,05,20,07,10,9.40
2016,05,20,07,11,9.40
2016,05,20,07,12,9.40
2016,05,20,07,13,9.40
2016,05,20,07,14,9.50
2016,05,20,07,15,9.50
2016,05,20,07,16,9.50
2016,05,20,07,17,9.50
2016,05,20,07,18,9.50
2016,05,20,07,19,9.50
2016,05,20,07,20,9.50
2016,05,20,07,21,9.50
2016,05,20,07,22,9.60
2016,05,20,07,23,9.60
2016,05,20,07,24,9.60
2016,05,20,07,25,9.60
2016,05,20,07,26,9.60
2016,05,20,07,27,9.60
2016,05,20,07,28,9.70
2016,05,20,07,29,9.70
2016,05,20,07,30,9.80
2016,05,20,07,31,9.80
2016,05,20,07,32,9.80
2016,05,20,07,33,9.90
2016,05,20,07,34,10.00
2016,05,20,07,35,10.00
2016,05,20,07,36,10.10
2016,05,20,07,37,10.10
2016,05,20,07,38,10.20
2016,05,20,07,39,10.20
2016,05,20,07,40,10.30
2016,05,20,07,41,10.40
2016,05,20,07,42,10.40
2016,05,20,07,43,10.50
2016,05,20,07,44,10.60
2016,05,20,07,45,10.60
2016,05,20,07,46,10.70
2016,05,20,07,47,10.70
2016,05,20,07,48,10.70
2016,05,20,07,49,10.70
2016,05,20,07,50,10.70
2016,05,20,07,51,10.80
2016,05,20,07,52,10.80
2016,05,20,07,53,10.80
2016,05,20,07,54,10.80
2016,05,20,07,55,10.80
2016,05,20,07,56,10.90
2016,05,20,07,57,10.90
2016,05,20,07,58,11.00
2016,05,20,07,59,11.10
2016,05,20,08,00,11.10
2016,05,20,08,01,11.20
2016,05,20,08,02,11.20
2016,05,20,08,03,11.20
2016,05,20,08,04,11.20
2016,05,20,08,05,11.30
2016,05,20,08,06,11.30
2016,05,20,08,07,11.40
2016,05,20,08,08,11.50
2016,05,20,08,09,11.60
2016,05,20,08,10,11.60
2016,05,20,08,11,11.70
2016,05,20,08,12,11.80
2016,05,20,08,13,11.80
2016,05,20,08,14,11.90
2016,05,20,08,15,11.90
2016,05,20,08,16,11.90
2016,05,20,08,17,11.90
2016,05,20,08,18,12.00
2016,05,20,08,19,12.00
2016,05,20,08,20,12.10
2016,05,20,08,21,12.10
2016,05,20,08,22,12.20
2016,05,20,08,23,12.20
2016,05,20,08,24,12.30
2016,05,20,08,25,12.30
2016,05,20,08,26,12.30
2016,05,20,08,27,12.30
2016,05,20,08,28,12.30
2016,05,20,08,29,12.40
2016,05,20,08,30,12.40
2016,05,20,08,31,12.50
2016,05,20,08,32,12.50
2016,05,20,08,33,12.60
2016,05,20,08,34,12.60
2016,05,20,08,35,12.60
2016,05,20,08,36,12.70
2016,05,20,08,37,12.70
2016,05,20,08,38,12.80
2016,05,20,08,39,12.80
2016,05,20,08,40,12.90
2016,05,20,08,41,12.90
2016,05,20,08,42,12.90
2016,05,20,08,43,13.00
2016,05,20,08,44,13.00
2016,05,20,08,45,13.00
2016,05,20,08,46,13.00
2016,05,20,08,47,13.10
2016,05,20,08,48,13.10
2016,05,20,08,49,13.10
2016,05,20,08,50,13.20
2016,05,20,08,51,13.20
2016,05,20,08,52,13.30
2016,05,20,08,53,13.40
2016,05,20,08,54,13.40
2016,05,20,08,55,13.50
2016,05,20,08,56,13.50
2016,05,20,08,57,13.50
2016,05,20,08,58,13.50
2016,05,20,08,59,13.50
2016,05,20,09,00,13.60
2016,05,20,09,01,13.70
2016,05,20,09,02,13.70
2016,05,20,09,03,13.70
2016,05,20,09,04,13.70
2016,05,20,09,05,13.70
2016,05,20,09,06,13.80
2016,05,20,09,07,13.80
2016,05,20,09,08,13.80
2016,05,20,09,09,13.90
2016,05,20,09,10,13.90
2016,05,20,09,11,14.00
2016,05,20,09,12,14.10
2016,05,20,09,13,14.10
2016,05,20,09,14,14.00
2016,05,20,09,15,14.00
2016,05,20,09,16,14.00
2016,05,20,09,17,14.00
2016,05,20,09,18,13.90
2016,05,20,09,19,13.90
2016,05,20,09,20,13.90
2016,05,20,09,21,13.80
2016,05,20,09,22,13.90
2016,05,20,09,23,13.90
2016,05,20,09,24,14.00
2016,05,20,09,25,14.00
2016,05,20,09,26,14.10
2016,05,20,09,27,14.20
2016,05,20,09,28,14.20
2016,05,20,09,29,14.30
2016,05,20,09,30,14.30
2016,05,20,09,31,14.30
2016,05,20,09,32,14.30
2016,05,20,09,33,14.30
2016,05,20,09,34,14.40
2016,05,20,09,35,14.40
2016,05,20,09,36,14.50
2016,05,20,09,37,14.60
2016,05,20,09,38,14.70
2016,05,20,09,39,14.70
2016,05,20,09,40,14.80
2016,05,20,09,41,14.80
2016,05,20,09,42,14.90
2016,05,20,09,43,14.90
2016,05,20,09,44,14.90
2016,05,20,09,45,15.00
2016,05,20,09,46,15.00
2016,05,20,09,47,15.00
2016,05,20,09,48,15.00
2016,05,20,09,49,15.00
2016,05,20,09,50,15.00
2016,05,20,09,51,15.00
2016,05,20,09,52,14.90
2016,05,20,09,53,14.90
2016,05,20,09,54,14.90
2016,05,20,09,55,14.90
2016,05,20,09,56,14.90
2016,05,20,09,57,15.00
2016,05,20,09,58,15.00
2016,05,20,09,59,15.00
2016,05,20,10,00,15.00
2016,05,20,10,01,14.90
2016,05,20,10,02,14.90
2016,05,20,10,03,14.80
2016,05,20,10,04,14.80
2016,05,20,10,05,14.80
2016,05,20,10,06,14.70
2016,05,20,10,07,14.70
2016,05,20,10,08,14.80
2016,05,20,10,09,14.80
2016,05,20,10,10,14.90
2016,05,20,10,11,14.90
2016,05,20,10,12,14.90
2016,05,20,10,13,14.80
2016,05,20,10,14,14.80
2016,05,20,10,15,14.80
2016,05,20,10,16,14.70
2016,05,20,10,17,14.60
2016,05,20,10,18,14.60
2016,05,20,10,19,14.60
2016,05,20,10,20,14.60
2016,05,20,10,21,14.60
2016,05,20,10,22,14.60
2016,05,20,10,23,14.60
2016,05,20,10,24,14.60
2016,05,20,10,25,14.60
2016,05,20,10,26,14.60
2016,05,20,10,27,14.70
2016,05,20,10,28,14.70
2016,05,20,10,29,14.70
2016,05,20,10,30,14.80
2016,05,20,10,31,14.80
2016,05,20,10,32,14.80
2016,05,20,10,33,14.80
2016,05,20,10,34,14.90
2016,05,20,10,35,15.00
2016,05,20,10,36,15.10
2016,05,20,10,37,15.10
2016,05,20,10,38,15.20
2016,05,20,10,39,15.20
2016,05,20,10,40,15.30
2016,05,20,10,41,15.30
2016,05,20,10,42,15.30
2016,05,20,10,43,15.40
2016,05,20,10,44,15.40
2016,05,20,10,45,15.50
2016,05,20,10,46,15.50
2016,05,20,10,47,15.60
2016,05,20,10,48,15.70
2016,05,20,10,49,15.70
2016,05,20,10,50,15.80
2016,05,20,10,51,15.90
2016,05,20,10,52,15.90
2016,05,20,10,53,15.90
2016,05,20,10,54,15.90
2016,05,20,10,55,15.90
2016,05,20,10,56,15.90
2016,05,20,10,57,15.90
2016,05,20,10,58,15.90
2016,05,20,10,59,15.90
2016,05,20,11,00,15.90
2016,05,20,11,01,15.90
2016,05,20,11,02,15.90
2016,05,20,11,03,15.90
2016,05,20,11,04,15.90
2016,05,20,11,05,15.90
2016,05,20,11,06,15.80
2016,05,20,11,07,15.80
2016,05,20,11,08,15.80
2016,05,20,11,09,15.90
2016,05,20,11,10,15.90
2016,05,20,11,11,16.00
2016,05,20,11,12,16.00
2016,05,20,11,13,16.10
2016,05,20,11,14,16.10
2016,05,20,11,15,16.10
2016,05,20,11,16,16.00
2016,05,20,11,17,16.00
2016,05,20,11,18,16.00
2016,05,20,11,19,16.10
2016,05,20,11,20,16.20
2016,05,20,11,21,16.30
2016,05,20,11,22,16.40
2016,05,20,11,23,16.40
2016,05,20,11,24,16.40
2016,05,20,11,25,16.50
2016,05,20,11,26,16.60
2016,05,20,11,27,16.60
2016,05,20,11,28,16.70
2016,05,20,11,29,16.70
2016,05,20,11,30,16.70
2016,05,20,11,31,16.80
2016,05,20,11,32,16.80
2016,05,20,11,33,16.80
2016,05,20,11,34,16.80
2016,05,20,11,35,16.80
2016,05,20,11,36,16.80
2016,05,20,11,37,16.80
2016,05,20,11,38,16.80
2016,05,20,11,39,16.90
2016,05,20,11,40,16.90
2016,05,20,11,41,17.00
2016,05,20,11,42,17.00
2016,05,20,11,43,17.10
2016,05,20,11,44,17.20
2016,05,20,11,45,17.30
2016,05,20,11,46,17.40
2016,05,20,11,47,17.40
2016,05,20,11,48,17.50
2016,05,20,11,49,17.50
2016,05,20,11,50,17.60
2016,05,20,11,51,17.60
2016,05,20,11,52,17.60
2016,05,20,11,53,17.60
2016,05,20,11,54,17.60
2016,05,20,11,55,17.60
2016,05,20,11,56,17.60
2016,05,20,11,57,17.50
2016,05,20,11,58,17.40
2016,05,20,11,59,17.30
2016,05,20,12,00,17.30
2016,05,20,12,01,17.20
2016,05,20,12,02,17.30
2016,05,20,12,03,17.30
2016,05,20,12,04,17.30
2016,05,20,12,05,17.30
2016,05,20,12,06,17.30
2016,05,20,12,07,17.30
2016,05,20,12,08,17.20
2016,05,20,12,09,17.20
2016,05,20,12,10,17.20
2016,05,20,12,11,17.20
2016,05,20,12,12,17.20
2016,05,20,12,13,17.20
2016,05,20,12,14,17.20
2016,05,20,12,15,17.30
2016,05,20,12,16,17.30
2016,05,20,12,17,17.40
2016,05,20,12,18,17.40
2016,05,20,12,19,17.50
2016,05,20,12,20,17.50
2016,05,20,12,21,17.60
2016,05,20,12,22,17.60
2016,05,20,12,23,17.60
2016,05,20,12,24,17.60
2016,05,20,12,25,17.70
2016,05,20,12,26,17.70
2016,05,20,12,27,17.70
2016,05,20,12,28,17.70
2016,05,20,12,29,17.70
2016,05,20,12,30,17.70
2016,05,20,12,31,17.70
2016,05,20,12,32,17.70
2016,05,20,12,33,17.70
2016,05,20,12,34,17.70
2016,05,20,12,35,17.70
2016,05,20,12,36,17.70
2016,05,20,12,37,17.60
2016,05,20,12,38,17.60
2016,05,20,12,39,17.60
2016,05,20,12,40,17.60
2016,05,20,12,41,17.60
2016,05,20,12,42,17.60
2016,05,20,12,43,17.60
2016,05,20,12,44,17.60
2016,05,20,12,45,17.60
2016,05,20,12,46,17.60
2016,05,20,12,47,17.60
2016,05,20,12,48,17.60
2016,05,20,12,49,17.60
2016,05,20,12,50,17.60
2016,05,20,12,51,17.60
2016,05,20,12,52,17.50
2016,05,20,12,53,17.50
2016,05,20,12,54,17.40
2016,05,20,12,55,17.40
2016,05,20,12,56,17.40
2016,05,20,12,57,17.50
2016,05,20,12,58,17.60
2016,05,20,12,59,17.60
2016,05,20,13,00,17.70
2016,05,20,13,01,17.70
2016,05,20,13,02,17.80
2016,05,20,13,03,17.80
2016,05,20,13,04,17.90
2016,05,20,13,05,17.90
2016,05,20,13,06,17.90
2016,05,20,13,07,17.90
2016,05,20,13,08,17.90
2016,05,20,13,09,18.00
2016,05,20,13,10,18.00
2016,05,20,13,11,18.00
2016,05,20,13,12,18.00
2016,05,20,13,13,18.10
2016,05,20,13,14,18.20
2016,05,20,13,15,18.30
2016,05,20,13,16,18.30
2016,05,20,13,17,18.40
2016,05,20,13,18,18.50
2016,05,20,13,19,18.50
2016,05,20,13,20,18.60
2016,05,20,13,21,18.70
2016,05,20,13,22,18.70
2016,05,20,13,23,18.80
2016,05,20,13,24,18.80
2016,05,20,13,25,18.90
2016,05,20,13,26,19.00
2016,05,20,13,27,19.10
2016,05,20,13,28,19.10
2016,05,20,13,29,19.10
2016,05,20,13,30,19.20
2016,05,20,13,31,19.20
2016,05,20,13,32,19.10
2016,05,20,13,33,19.10
2016,05,20,13,34,19.00
2016,05,20,13,35,19.00
2016,05,20,13,36,19.00
2016,05,20,13,37,19.10
2016,05,20,13,38,19.10
2016,05,20,13,39,19.10
2016,05,20,13,40,19.20
2016,05,20,13,41,19.30
2016,05,20,13,42,19.40
2016,05,20,13,43,19.40
2016,05,20,13,44,19.40
2016,05,20,13,45,19.50
2016,05,20,13,46,19.60
2016,05,20,13,47,19.60
2016,05,20,13,48,19.80
2016,05,20,13,49,19.80
2016,05,20,13,50,19.90
2016,05,20,13,51,20.00
2016,05,20,13,52,20.10
2016,05,20,13,53,20.10
2016,05,20,13,54,20.20
2016,05,20,13,55,20.30
2016,05,20,13,56,20.30
2016,05,20,13,57,20.30
2016,05,20,13,58,20.30
2016,05,20,13,59,20.30
2016,05,20,14,00,20.30
2016,05,20,14,01,20.20
2016,05,20,14,02,20.20
2016,05,20,14,03,20.10
2016,05,20,14,04,20.10
2016,05,20,14,05,20.10
2016,05,20,14,06,20.10
2016,05,20,14,07,20.10
2016,05,20,14,08,20.10
2016,05,20,14,09,20.10
2016,05,20,14,10,20.10
2016,05,20,14,11,20.10
2016,05,20,14,12,20.10
2016,05,20,14,13,20.10
2016,05,20,14,14,20.20
2016,05,20,14,15,20.20
2016,05,20,14,16,20.20
2016,05,20,14,17,20.20
2016,05,20,14,18,20.20
2016,05,20,14,19,20.20
2016,05,20,14,20,20.20
2016,05,20,14,21,20.20
2016,05,20,14,22,20.20
2016,05,20,14,23,20.30
2016,05,20,14,24,20.30
2016,05,20,14,25,20.40
2016,05,20,14,26,20.40
2016,05,20,14,27,20.40
2016,05,20,14,28,20.40
2016,05,20,14,29,20.40
2016,05,20,14,30,20.30
2016,05,20,14,31,20.30
2016,05,20,14,32,20.30
2016,05,20,14,33,20.30
2016,05,20,14,34,20.40
2016,05,20,14,35,20.40
2016,05,20,14,36,20.50
2016,05,20,14,37,20.50
2016,05,20,14,38,20.50
2016,05,20,14,39,20.40
2016,05,20,14,40,20.40
2016,05,20,14,41,20.40
2016,05,20,14,42,20.40
2016,05,20,14,43,20.50
2016,05,20,14,44,20.50
2016,05,20,14,45,20.50
2016,05,20,14,46,20.40
2016,05,20,14,47,20.40
2016,05,20,14,48,20.40
2016,05,20,14,49,20.40
2016,05,20,14,50,20.40
2016,05,20,14,51,20.50
2016,05,20,14,52,20.60
2016,05,20,14,53,20.60
2016,05,20,14,54,20.70
2016,05,20,14,55,20.80
2016,05,20,14,56,20.80
2016,05,20,14,57,20.90
2016,05,20,14,58,21.00
2016,05,20,14,59,21.00
2016,05,20,15,00,21.10
2016,05,20,15,01,21.20
2016,05,20,15,02,21.30
2016,05,20,15,03,21.30
2016,05,20,15,04,21.40
2016,05,20,15,05,21.50
2016,05,20,15,06,21.50
2016,05,20,15,07,21.40
2016,05,20,15,08,21.20
2016,05,20,15,09,21.10
2016,05,20,15,10,20.90
2016,05,20,15,11,20.80
2016,05,20,15,12,20.70
2016,05,20,15,13,20.60
2016,05,20,15,14,20.50
2016,05,20,15,15,20.50
2016,05,20,15,16,20.40
2016,05,20,15,17,20.40
2016,05,20,15,18,20.50
2016,05,20,15,19,20.50
2016,05,20,15,20,20.60
2016,05,20,15,21,20.60
2016,05,20,15,22,20.60
2016,05,20,15,23,20.60
2016,05,20,15,24,20.60
2016,05,20,15,25,20.60
2016,05,20,15,26,20.70
2016,05,20,15,27,20.80
2016,05,20,15,28,20.90
2016,05,20,15,29,21.00
2016,05,20,15,30,21.10
2016,05,20,15,31,21.10
2016,05,20,15,32,21.10
2016,05,20,15,33,21.10
2016,05,20,15,34,21.10
2016,05,20,15,35,21.10
2016,05,20,15,36,21.10
2016,05,20,15,37,21.10
2016,05,20,15,38,21.20
2016,05,20,15,39,21.20
2016,05,20,15,40,21.30
2016,05,20,15,41,21.30
2016,05,20,15,42,21.30
2016,05,20,15,43,21.20
2016,05,20,15,44,21.20
2016,05,20,15,45,21.20
2016,05,20,15,46,21.10
2016,05,20,15,47,21.20
2016,05,20,15,48,21.20
2016,05,20,15,49,21.20
2016,05,20,15,50,21.20
2016,05,20,15,51,21.30
2016,05,20,15,52,21.30
2016,05,20,15,53,21.30
2016,05,20,15,54,21.30
2016,05,20,15,55,21.30
2016,05,20,15,56,21.30
2016,05,20,15,57,21.20
2016,05,20,15,58,21.20
2016,05,20,15,59,21.20
2016,05,20,16,00,21.20
2016,05,20,16,01,21.20
2016,05,20,16,02,21.20
2016,05,20,16,03,21.20
2016,05,20,16,04,21.30
2016,05,20,16,05,21.30
2016,05,20,16,06,21.30
2016,05,20,16,07,21.30
2016,05,20,16,08,21.30
2016,05,20,16,09,21.30
2016,05,20,16,10,21.40
2016,05,20,16,11,21.40
2016,05,20,16,12,21.40
2016,05,20,16,13,21.30
2016,05,20,16,14,21.30
2016,05,20,16,15,21.20
2016,05,20,16,16,21.20
2016,05,20,16,17,21.20
2016,05,20,16,18,21.30
2016,05,20,16,19,21.30
2016,05,20,16,20,21.30
2016,05,20,16,21,21.40
2016,05,20,16,22,21.40
2016,05,20,16,23,21.40
2016,05,20,16,24,21.30
2016,05,20,16,25,21.30
2016,05,20,16,26,21.30
2016,05,20,16,27,21.30
2016,05,20,16,28,21.40
2016,05,20,16,29,21.50
2016,05,20,16,30,21.50
2016,05,20,16,31,21.60
2016,05,20,16,32,21.70
2016,05,20,16,33,21.70
2016,05,20,16,34,21.70
2016,05,20,16,35,21.70
2016,05,20,16,36,21.70
2016,05,20,16,37,21.70
2016,05,20,16,38,21.60
2016,05,20,16,39,21.60
2016,05,20,16,40,21.50
2016,05,20,16,41,21.60
2016,05,20,16,42,21.60
2016,05,20,16,43,21.60
2016,05,20,16,44,21.60
2016,05,20,16,45,21.60
2016,05,20,16,46,21.50
2016,05,20,16,47,21.40
2016,05,20,16,48,21.40
2016,05,20,16,49,21.40
2016,05,20,16,50,21.30
2016,05,20,16,51,21.30
2016,05,20,16,52,21.30
2016,05,20,16,53,21.30
2016,05,20,16,54,21.30
2016,05,20,16,55,21.20
2016,05,20,16,56,21.10
2016,05,20,16,57,21.10
2016,05,20,16,58,21.00
2016,05,20,16,59,21.00
2016,05,20,17,00,20.90
2016,05,20,17,01,20.90
2016,05,20,17,02,20.80
2016,05,20,17,03,20.80
2016,05,20,17,04,20.80
2016,05,20,17,05,20.70
2016,05,20,17,06,20.70
2016,05,20,17,07,20.70
2016,05,20,17,08,20.60
2016,05,20,17,09,20.60
2016,05,20,17,10,20.60
2016,05,20,17,11,20.50
2016,05,20,17,12,20.50
2016,05,20,17,13,20.50
2016,05,20,17,14,20.50
2016,05,20,17,15,20.50
2016,05,20,17,16,20.40
2016,05,20,17,17,20.30
2016,05,20,17,18,20.30
2016,05,20,17,19,20.20
2016,05,20,17,20,20.10
2016,05,20,17,21,20.00
2016,05,20,17,22,20.00
2016,05,20,17,23,19.90
2016,05,20,17,24,19.90
2016,05,20,17,25,19.90
2016,05,20,17,26,19.90
2016,05,20,17,27,19.90
2016,05,20,17,28,19.90
2016,05,20,17,29,19.90
2016,05,20,17,30,19.90
2016,05,20,17,31,19.90
2016,05,20,17,32,19.90
2016,05,20,17,33,20.00
2016,05,20,17,34,20.00
2016,05,20,17,35,20.10
2016,05,20,17,36,20.10
2016,05,20,17,37,20.10
2016,05,20,17,38,20.10
2016,05,20,17,39,20.10
2016,05,20,17,40,20.10